Location: Bay Creek Structure Number 5 Dam
(37.4851°N, 88.6884°W)
Time: 13:43:23
(UTC+00:00)

STARLINK-36 - Pass Details

Date: 13 October 2019
Orbit: 549 x 551 km, 53.0° (Epoch: 20 November)

Event Time Altitude Azimuth Distance (km) Brightness Sun altitude
Rises 23:40:28 0° 234° (SW) 2,703 8.4 -4.7°
Reaches altitude 10° 23:42:42 10° 238° (WSW) 1,813 7.5 -5.2°
Maximum altitude 23:46:47 64° 320° (NW) 610 4.0 -6.0°
Drops below altitude 10° 23:50:54 10° 42° (NE) 1,823 5.8 -6.8°
Enters shadow 23:52:36 - 45° (NE) 2,492 6.5 -7.1°
